FW0248 Weather Reports


time (UTC)temp
F
wind
direction
speed
knots
gust
knots
rain 1hr
in
rain 24hr
in
rain mn
in
humidity
%
barometer
mb
20260505180118 81 183 2.6 7.8 0.00 0.00 0.00 43 1016.5
20260505175620 81 184 1.7 7.8 0.00 0.00 0.00 44 1016.5
20260505175119 82 184 1.7 7.8 0.00 0.00 0.00 42 1016.5
20260505174616 82 184 1.7 5.2 0.00 0.00 0.00 44 1016.5
20260505174117 82 184 1.7 5.2 0.00 0.00 0.00 45 1016.5
20260505173617 81 184 1.7 5.2 0.00 0.00 0.00 46 1016.6
20260505173116 81 184 1.7 7.0 0.00 0.00 0.00 46 1016.5
20260505172616 78 184 3.5 8.7 0.00 0.00 0.00 46 1016.5
20260505172117 79 184 2.6 8.7 0.00 0.00 0.00 44 1016.5
20260505171617 81 187 1.7 7.8 0.00 0.00 0.00 46 1016.6
20260505171117 80 187 2.6 7.8 0.00 0.00 0.00 45 1016.6
20260505170614 80 187 1.7 7.0 0.00 0.00 0.00 45 1016.6
20260505170115 81 187 0.9 3.5 0.00 0.00 0.00 44 1016.7
20260505165615 81 187 0.9 5.2 0.00 0.00 0.00 45 1016.7
20260505165115 80 187 1.7 9.6 0.00 0.00 0.00 47 1016.9
20260505164612 81 187 0.9 9.6 0.00 0.00 0.00 44 1016.8
20260505164112 82 190 0.9 4.3 0.00 0.00 0.00 42 1017.1
20260505163612 82 190 0.9 4.3 0.00 0.00 0.00 44 1017.2
20260505163114 80 190 0.9 4.3 0.00 0.00 0.00 47 1017.2
20260505162614 79 190 2.6 7.0 0.00 0.00 0.00 49 1017.3
20260505162112 78 190 2.6 7.0 0.00 0.00 0.00 50 1017.4
20260505161613 78 191 1.7 6.1 0.00 0.00 0.00 54 1017.4
20260505161112 79 190 1.7 7.8 0.00 0.00 0.00 51 1017.4
20260505160613 78 190 1.7 7.8 0.00 0.00 0.00 52 1017.5
20260505160113 78 192 1.7 7.0 0.00 0.00 0.00 52 1017.5
20260505153112 76 192 1.7 5.2 0.00 0.00 0.00 58 1017.7
20260505152613 75 192 2.6 5.2 0.00 0.00 0.00 59 1017.6
20260505152112 74 192 2.6 5.2 0.00 0.00 0.00 62 1017.7
20260505151618 74 192 1.7 7.8 0.00 0.00 0.00 62 1017.7
20260505151613 74 192 1.7 7.8 0.00 0.00 0.00 62 1017.7
20260505150844 74 192 1.7 6.1 0.00 0.00 0.00 62 1017.7
20260505150110 74 192 1.7 4.3 0.00 0.00 0.00 64 1017.7
20260505140602 70 188 1.7 5.2 0.00 0.00 0.00 72 1017.6
20260505124553 59 184 0.9 2.6 0.00 0.00 0.00 85 1017.5
20260505124324 59 184 0.0 1.7 0.00 0.00 0.00 86 1017.5
20260505123553 58 185 0.0 2.6 0.00 0.00 0.00 86 1017.5
20260505123053 58 184 0.9 2.6 0.00 0.00 0.00 87 1017.5
20260505122553 58 184 0.9 2.6 0.00 0.00 0.00 87 1017.6
20260505122324 57 185 0.9 2.6 0.00 0.00 0.00 87 1017.7
20260505121826 57 185 0.9 2.6 0.00 0.00 0.00 88 1017.7
20260505121053 57 185 0.9 2.6 0.00 0.00 0.00 88 1017.6
20260505120824 56 184 0.9 1.7 0.00 0.00 0.00 88 1017.5
20260505120054 56 184 0.0 1.7 0.00 0.00 0.00 89 1017.3
20260505115822 56 184 0.0 1.7 0.00 0.00 0.00 89 1017.4
20260505115052 55 184 0.9 1.7 0.00 0.00 0.00 90 1017.3
20260505114551 55 184 0.9 1.7 0.00 0.00 0.00 90 1017.2
20260505114051 55 184 0.0 1.7 0.00 0.00 0.00 91 1017.2
20260505113552 54 184 0.9 1.7 0.00 0.00 0.00 91 1017.1
20260505113322 54 184 0.0 1.7 0.00 0.00 0.00 92 1017.1
20260505112551 0 0.0 0.0 0.00 0.00 0.00 1017.1
20260505112049 0 0.0 0.0 0.00 0.00 0.00 1017.2
20260505111550 0 0.0 0.0 0.00 0.00 0.00 1017.2
20260505111048 0 0.0 0.0 0.00 0.00 0.00 1017.1
20260505110550 0 0.0 0.0 0.00 0.00 0.00 1017.0
20260505101940 0 0.0 0.0 0.00 0.00 0.00 1016.8
20260505101351 0 0.0 0.0 0.00 0.00 0.00 1016.8
20260505100847 0 0.0 0.0 0.00 0.00 0.00 1016.6
20260505100346 0 184 0.0 0.0 0.00 0.00 0.00 1016.7
20260505095843 0 184 0.0 0.0 0.00 0.00 0.00 1016.6
20260505095305 55 184 0.0 2.6 0.00 0.00 0.00 87 1016.5
20260505094802 55 184 0.0 2.6 0.00 0.00 0.00 87 1016.4
20260505094301 55 184 0.0 2.6 0.00 0.00 0.00 87 1016.4
20260505093800 55 185 0.0 2.6 0.00 0.00 0.00 88 1016.3
20260505093301 54 185 0.0 0.9 0.00 0.00 0.00 88 1016.3
20260505092802 54 184 0.0 0.9 0.00 0.00 0.00 88 1016.2
20260505092300 54 185 0.0 1.7 0.00 0.00 0.00 88 1016.1
20260505091801 54 184 0.0 1.7 0.00 0.00 0.00 87 1016.0
20260505091529 54 184 0.9 1.7 0.00 0.00 0.00 87 1016.0
20260505090759 54 185 0.9 1.7 0.00 0.00 0.00 87 1015.9
20260505090258 54 185 0.9 1.7 0.00 0.00 0.00 87 1016.0
20260505085759 54 185 0.9 1.7 0.00 0.00 0.00 86 1016.0
20260505085259 54 184 0.9 1.7 0.00 0.00 0.00 86 1016.0
20260505085030 55 185 0.9 1.7 0.00 0.00 0.00 85 1016.0
20260505084259 55 184 0.9 1.7 0.00 0.00 0.00 85 1015.9
20260505083759 55 184 0.9 1.7 0.00 0.00 0.00 85 1015.9
20260505083256 55 184 0.9 1.7 0.00 0.00 0.00 84 1015.9
20260505082757 55 184 0.9 1.7 0.00 0.00 0.00 84 1015.9
20260505082257 55 184 0.9 1.7 0.00 0.00 0.00 84 1015.9
20260505081802 55 184 0.9 2.6 0.00 0.00 0.00 83 1015.9
20260505081758 55 185 0.9 1.7 0.00 0.00 0.00 83 1015.8
20260505081026 56 184 1.7 2.6 0.00 0.00 0.00 83 1015.9
20260505080252 56 185 1.7 2.6 0.00 0.00 0.00 82 1015.8
20260505075752 56 184 0.9 2.6 0.00 0.00 0.00 82 1015.9
20260505075252 56 184 0.9 2.6 0.00 0.00 0.00 81 1015.8
20260505074752 56 184 0.9 1.7 0.00 0.00 0.00 81 1015.8
20260505074253 56 185 0.9 2.6 0.00 0.00 0.00 81 1015.8
20260505073753 56 185 0.9 2.6 0.00 0.00 0.00 80 1015.8
20260505073252 57 185 0.9 3.5 0.00 0.00 0.00 80 1015.8
20260505072752 57 185 1.7 3.5 0.00 0.00 0.00 79 1015.8
20260505072252 57 185 1.7 2.6 0.00 0.00 0.00 79 1015.7
20260505072024 57 185 1.7 2.6 0.00 0.00 0.00 78 1015.7
20260505071254 57 184 1.7 2.6 0.00 0.00 0.00 78 1015.8
20260505070753 58 185 1.7 2.6 0.00 0.00 0.00 78 1015.8
20260505070524 58 185 1.7 3.5 0.00 0.00 0.00 77 1015.7
20260505065753 58 184 1.7 3.5 0.00 0.00 0.00 77 1015.6
20260505065523 58 185 1.7 2.6 0.00 0.00 0.00 76 1015.7
20260505064752 58 184 1.7 2.6 0.00 0.00 0.00 76 1015.7
20260505064253 58 184 1.7 3.5 0.00 0.00 0.00 76 1015.6
20260505063753 58 185 1.7 3.5 0.00 0.00 0.00 76 1015.7
20260505063252 58 184 1.7 3.5 0.00 0.00 0.00 76 1015.7
20260505062752 58 185 1.7 3.5 0.00 0.00 0.00 76 1015.7
20260505062252 58 185 1.7 3.5 0.00 0.00 0.00 75 1015.7
20260505061753 58 185 1.7 3.5 0.00 0.00 0.00 75 1015.6
20260505061252 58 184 1.7 2.6 0.00 0.00 0.00 75 1015.8
20260505061023 59 185 1.7 2.6 0.00 0.00 0.00 74 1015.9
20260505060253 59 184 1.7 2.6 0.00 0.00 0.00 74 1015.9
20260505055750 59 184 1.7 2.6 0.00 0.00 0.00 74 1015.9
20260505055521 59 185 1.7 2.6 0.00 0.00 0.00 73 1015.9
20260505054755 59 184 1.7 3.5 0.00 0.00 0.00 72 1015.9
20260505054750 59 184 1.7 2.6 0.00 0.00 0.00 73 1015.9
20260505053749 60 185 1.7 3.5 0.00 0.00 0.00 72 1016.0
20260505053519 60 185 1.7 3.5 0.00 0.00 0.00 72 1016.0
20260505052748 60 184 1.7 2.6 0.00 0.00 0.00 71 1016.0
20260505052520 60 184 1.7 3.5 0.00 0.00 0.00 71 1016.0
20260505051748 60 184 1.7 4.3 0.00 0.00 0.00 70 1016.0
20260505051520 60 184 1.7 4.3 0.00 0.00 0.00 70 1016.0
20260505050748 60 185 2.6 4.3 0.00 0.00 0.00 69 1016.0
20260505050246 60 184 2.6 4.3 0.00 0.00 0.00 69 1016.0
20260505041744 61 184 1.7 3.5 0.00 0.00 0.00 64 1016.1
20260505041245 61 185 1.7 4.3 0.00 0.00 0.00 63 1016.1
20260505040744 61 184 1.7 4.3 0.00 0.00 0.00 62 1016.3
20260505040244 62 184 2.6 4.3 0.00 0.00 0.00 62 1016.2
20260505035744 62 184 1.7 3.5 0.00 0.00 0.00 61 1016.2
20260505035244 61 185 1.7 5.2 0.00 0.00 0.00 61 1016.1
20260505035015 61 185 1.7 5.2 0.00 0.00 0.00 61 1016.2
20260505034244 61 185 0.9 2.6 0.00 0.00 0.00 61 1016.1
20260505033744 61 185 0.0 1.7 0.00 0.00 0.00 61 1016.0
20260505033244 61 185 0.0 0.9 0.00 0.00 0.00 61 1016.0
20260505032742 62 185 0.0 1.7 0.00 0.00 0.00 60 1016.0
20260505032242 62 185 0.9 1.7 0.00 0.00 0.00 58 1016.0
20260505031742 63 185 0.9 1.7 0.00 0.00 0.00 57 1016.1
20260505031242 63 185 0.9 1.7 0.00 0.00 0.00 57 1016.1
20260505030742 63 185 0.9 1.7 0.00 0.00 0.00 56 1016.0
20260505030242 63 184 0.9 1.7 0.00 0.00 0.00 56 1016.0
20260505025742 63 185 0.9 1.7 0.00 0.00 0.00 56 1016.0
20260505025243 63 185 0.9 1.7 0.00 0.00 0.00 56 1016.0
20260505024742 63 184 0.0 1.7 0.00 0.00 0.00 55 1015.9
20260505024242 64 184 0.0 0.9 0.00 0.00 0.00 55 1016.0
20260505023740 64 185 0.9 0.9 0.00 0.00 0.00 54 1015.9
20260505023240 64 184 0.9 1.7 0.00 0.00 0.00 54 1015.9
20260505023011 64 185 0.9 1.7 0.00 0.00 0.00 53 1015.8
20260505022241 65 185 0.9 1.7 0.00 0.00 0.00 53 1015.7
20260505022011 65 184 0.9 1.7 0.00 0.00 0.00 53 1015.7
20260505021241 65 184 0.9 1.7 0.00 0.00 0.00 52 1015.7
20260505020740 66 184 0.9 2.6 0.00 0.00 0.00 51 1015.6
20260505020240 66 184 0.9 2.6 0.00 0.00 0.00 50 1015.6
20260505015740 66 184 0.9 1.7 0.00 0.00 0.00 50 1015.4
20260505015240 66 184 0.9 1.7 0.00 0.00 0.00 49 1015.4
20260505015009 66 184 0.9 1.7 0.00 0.00 0.00 49 1015.3
20260505014238 66 185 0.9 1.7 0.00 0.00 0.00 49 1015.2
20260505013737 66 185 0.9 1.7 0.00 0.00 0.00 50 1015.2
20260505013239 66 184 0.0 1.7 0.00 0.00 0.00 50 1015.1
20260505012738 65 185 0.0 0.9 0.00 0.00 0.00 52 1015.1
20260505012238 66 184 0.0 0.9 0.00 0.00 0.00 52 1015.1
20260505011737 66 184 0.0 0.9 0.00 0.00 0.00 51 1015.0
20260505011237 67 185 0.0 0.9 0.00 0.00 0.00 50 1015.0
20260505011009 67 184 0.0 0.9 0.00 0.00 0.00 48 1014.9
20260505010237 68 184 0.0 0.0 0.00 0.00 0.00 47 1014.8
20260505005737 68 184 0.0 0.0 0.00 0.00 0.00 47 1014.8
20260505005237 69 185 0.0 0.9 0.00 0.00 0.00 46 1014.7
20260505004738 69 185 0.0 1.7 0.00 0.00 0.00 44 1014.7
20260505004238 69 184 0.0 1.7 0.00 0.00 0.00 45 1014.7
20260505003739 70 184 0.0 1.7 0.00 0.00 0.00 44 1014.7
20260505003237 70 184 0.0 1.7 0.00 0.00 0.00 44 1014.6
20260505003008 71 185 0.9 1.7 0.00 0.00 0.00 43 1014.6
20260505002235 71 185 0.0 1.7 0.00 0.00 0.00 43 1014.5
20260505001733 71 185 0.9 1.7 0.00 0.00 0.00 43 1014.6
20260505001231 72 185 0.9 2.6 0.00 0.00 0.00 43 1014.5
20260505000732 72 184 0.9 2.6 0.00 0.00 0.00 42 1014.4
20260505000230 73 184 0.9 2.6 0.00 0.00 0.00 42 1014.5
20260504235728 73 184 1.7 2.6 0.00 0.00 0.00 41 1014.5
20260504235228 73 185 1.7 7.0 0.00 0.00 0.00 41 1014.4
20260504234729 74 184 1.7 7.0 0.00 0.00 0.00 41 1014.3
20260504234225 74 185 1.7 7.8 0.00 0.00 0.00 41 1014.2
20260504233725 74 184 2.6 7.8 0.00 0.00 0.00 40 1014.2
20260504233225 75 184 2.6 7.0 0.00 0.00 0.00 41 1014.1
20260504232725 75 185 2.6 7.0 0.00 0.00 0.00 40 1014.1
20260504232224 75 183 2.6 6.1 0.00 0.00 0.00 39 1014.1
20260504231724 76 182 1.7 6.1 0.00 0.00 0.00 38 1014.0
20260504231454 76 182 1.7 4.3 0.00 0.00 0.00 37 1014.0
20260504230724 76 182 1.7 4.3 0.00 0.00 0.00 37 1014.0
20260504230224 76 180 1.7 6.1 0.00 0.00 0.00 36 1014.0
20260504225954 76 180 2.6 6.1 0.00 0.00 0.00 35 1014.0
20260504225225 77 180 2.6 6.1 0.00 0.00 0.00 35 1013.9
20260504224721 77 180 1.7 5.2 0.00 0.00 0.00 35 1013.8
20260504224222 77 180 1.7 7.0 0.00 0.00 0.00 36 1013.9
20260504223722 77 180 2.6 7.0 0.00 0.00 0.00 37 1013.9
20260504223222 78 180 1.7 7.0 0.00 0.00 0.00 36 1013.9
20260504222721 78 179 0.9 6.1 0.00 0.00 0.00 37 1013.9
20260504222226 78 179 2.6 7.8 0.00 0.00 0.00 36 1013.9
20260504222222 78 179 1.7 7.8 0.00 0.00 0.00 36 1014.0
20260504221222 79 167 1.7 5.2 0.00 0.00 0.00 34 1013.9
20260504220721 80 167 0.9 4.3 0.00 0.00 0.00 33 1013.9
20260504220222 79 167 0.9 5.2 0.00 0.00 0.00 33 1014.0
20260504215722 79 167 1.7 5.2 0.00 0.00 0.00 33 1013.9
20260504215221 79 167 1.7 7.0 0.00 0.00 0.00 34 1013.9
20260504214721 79 167 2.6 7.0 0.00 0.00 0.00 32 1013.9
20260504214221 79 167 2.6 5.2 0.00 0.00 0.00 33 1014.0
20260504213722 79 167 2.6 5.2 0.00 0.00 0.00 32 1013.9
20260504213221 79 167 1.7 8.7 0.00 0.00 0.00 31 1013.9
20260504212721 79 167 2.6 8.7 0.00 0.00 0.00 32 1014.1
20260504212221 79 167 2.6 7.8 0.00 0.00 0.00 32 1014.0
20260504211722 79 167 2.6 7.8 0.00 0.00 0.00 30 1014.0
20260504211227 79 168 2.6 7.0 0.00 0.00 0.00 31 1014.0
20260504211221 80 168 2.6 7.0 0.00 0.00 0.00 32 1014.0
20260504210222 80 173 1.7 4.3 0.00 0.00 0.00 28 1014.0
20260504205952 80 173 1.7 6.1 0.00 0.00 0.00 29 1014.1
20260504205222 80 173 2.6 7.0 0.00 0.00 0.00 31 1014.0
20260504204721 80 174 1.7 7.0 0.00 0.00 0.00 30 1014.2
20260504204218 82 175 0.9 4.3 0.00 0.00 0.00 31 1014.3
20260504203717 81 175 0.9 4.3 0.00 0.00 0.00 33 1014.3
20260504203446 80 176 1.7 6.1 0.00 0.00 0.00 34 1014.3
20260504203323 80 176 1.7 6.1 0.00 0.00 0.00 32 1014.5
20260504202215 80 175 0.9 3.5 0.00 0.00 0.00 32 1014.6
20260504201713 79 176 2.6 6.1 0.00 0.00 0.00 31 1014.6
20260504201211 78 175 3.5 6.1 0.00 0.00 0.00 31 1014.6
20260504200712 78 176 2.6 6.1 0.00 0.00 0.00 32 1014.7
20260504200443 78 175 3.5 8.7 0.00 0.00 0.00 34 1014.7
20260504195709 79 175 2.6 8.7 0.00 0.00 0.00 35 1014.8
20260504195209 79 177 2.6 7.0 0.00 0.00 0.00 33 1014.7
20260504194710 78 177 2.6 8.7 0.00 0.00 0.00 34 1014.7
20260504194209 80 178 1.7 8.7 0.00 0.00 0.00 36 1014.8
20260504193709 79 178 1.7 6.1 0.00 0.00 0.00 34 1014.9
20260504193209 79 178 2.6 7.8 0.00 0.00 0.00 32 1015.0
20260504192709 78 178 3.5 7.8 0.00 0.00 0.00 33 1015.1
20260504192207 78 178 3.5 7.0 0.00 0.00 0.00 36 1015.2
20260504191707 78 178 2.6 7.8 0.00 0.00 0.00 36 1015.2
20260504191207 78 179 2.6 7.8 0.00 0.00 0.00 35 1015.3
20260504190938 78 179 2.6 6.1 0.00 0.00 0.00 33 1015.4
20260504190208 80 179 1.7 5.2 0.00 0.00 0.00 30 1015.6
20260504185707 80 179 1.7 3.5 0.00 0.00 0.00 30 1015.6
20260504185207 79 179 1.7 4.3 0.00 0.00 0.00 32 1015.7
20260504184706 80 179 0.9 4.3 0.00 0.00 0.00 29 1015.7
20260504184205 79 179 0.9 7.0 0.00 0.00 0.00 30 1015.8
20260504183706 78 179 2.6 7.0 0.00 0.00 0.00 31 1015.8
20260504183205 78 181 2.6 7.0 0.00 0.00 0.00 33 1015.9
20260504182706 78 181 1.7 7.0 0.00 0.00 0.00 33 1016.0
20260504182205 78 181 0.9 5.2 0.00 0.00 0.00 31 1016.0
20260504181705 78 181 0.9 3.5 0.00 0.00 0.00 30 1016.2
20260504181205 79 181 1.7 6.1 0.00 0.00 0.00 31 1016.2
20260504180705 77 181 2.6 6.1 0.00 0.00 0.00 36 1016.2